Theta_e
313 311 316 316 302 298 295 296 301 300 301 306 305 302 303 304 302 301 317 313 314 320 323 331 333 343 348 349 352 353 353 353 353 352 352 352 352 352 351 353 352 353 353 351 351 350 348 349 348
308 311 314 309 295 292 294 300 298 301 303 303 302 302 302 301 309 310 310 310 309 316 319 318 329 338 344 347 349 351 351 352 352 353 353 354 353 352 351 351 351 350 350 350 349 348 346 347 346
306 310 304 299 295 290 292 296 298 299 299 299 298 301 301 302 308 305 306 306 307 309 315 315 323 330 336 342 345 348 349 350 351 352 354 354 353 351 351 350 349 349 350 349 348 346 345 346 346
304 305 300 292 292 296 294 295 297 297 298 298 297 295 302 303 302 303 305 306 306 306 310 314 317 321 327 331 338 343 347 348 349 350 351 352 352 350 351 349 349 349 348 348 349 348 346 346 346
304 301 293 291 292 294 295 297 296 294 295 296 296 293 297 301 303 303 304 305 305 306 306 310 315 314 319 323 326 335 341 345 347 348 350 349 349 350 349 347 348 349 348 347 348 348 346 346 346
296 298 291 291 293 293 294 295 294 293 294 295 294 294 296 301 300 301 303 304 306 305 306 307 311 313 313 317 320 322 331 337 341 345 347 347 346 347 348 347 346 348 347 346 346 346 345 345 344
295 294 292 291 291 291 292 294 292 293 293 294 295 291 297 301 300 301 303 304 305 306 306 307 308 309 312 314 318 317 320 326 333 336 339 342 343 343 343 344 344 346 347 346 344 344 344 344 343
297 295 291 292 291 290 292 293 294 293 292 297 296 292 293 296 299 301 302 303 304 305 305 305 306 308 308 308 314 316 318 320 326 331 333 330 333 336 337 335 340 343 343 344 344 343 343 343 342
297 292 290 291 289 291 292 291 296 296 293 295 297 296 298 298 299 299 299 301 302 303 303 304 305 305 306 307 307 315 318 320 323 328 329 331 341 342 340 336 336 340 340 341 341 341 341 338 336
295 292 291 292 292 290 292 292 293 291 292 293 295 298 299 297 297 296 296 296 298 299 301 302 304 304 305 305 307 311 315 318 320 323 332 335 338 341 339 331 329 334 335 338 339 339 336 332 336
293 291 291 291 292 292 291 290 293 291 289 292 291 293 294 294 295 295 295 296 296 298 300 301 302 304 305 306 306 308 312 316 319 319 322 332 336 339 341 342 338 338 328 337 337 337 337 336 333
289 291 291 291 291 290 289 291 290 291 292 292 292 292 292 292 292 293 293 294 295 296 298 300 301 302 304 306 305 306 311 313 315 317 316 320 332 335 336 339 340 338 335 335 335 334 335 334 333
289 290 290 291 291 290 291 289 289 290 293 292 291 290 291 290 291 292 293 294 295 294 296 298 301 301 302 304 305 304 307 311 314 315 316 316 318 329 333 334 336 333 334 330 329 329 330 332 331
291 290 290 291 290 291 288 288 289 290 290 289 289 290 290 290 290 290 291 291 291 293 294 297 298 301 302 304 304 304 305 312 313 314 315 315 316 318 327 334 333 333 331 330 329 326 328 329 331
290 287 290 289 289 288 288 284 285 291 288 288 289 289 289 289 289 289 289 289 291 291 293 295 297 300 301 303 303 303 306 309 310 314 315 316 316 314 317 329 333 335 333 332 331 329 329 329 330
287 287 287 291 288 288 286 281 289 289 287 287 288 288 288 288 288 289 289 289 290 291 291 293 296 298 301 303 305 306 306 309 310 311 311 313 315 315 316 321 331 334 335 332 330 328 327 327 327
288 284 286 287 288 286 284 282 287 289 287 286 287 286 286 286 287 288 287 288 289 289 290 291 293 294 297 299 303 306 307 308 310 310 311 311 311 314 313 318 328 331 333 332 328 325 328 327 325
284 283 285 285 288 288 284 284 288 289 288 286 286 286 285 284 285 286 286 287 287 288 289 289 291 293 296 297 299 305 307 309 309 309 310 310 311 312 313 314 321 330 332 329 327 326 327 326 326
285 283 283 288 287 283 283 283 285 287 287 285 285 284 283 283 284 285 285 285 286 287 287 288 288 291 294 295 295 297 301 307 308 309 311 310 313 314 314 314 315 324 328 328 326 324 323 323 314
285 283 284 286 285 284 282 282 285 286 286 286 283 282 281 281 282 282 283 284 284 285 286 286 287 289 292 294 294 295 297 300 308 310 310 310 312 316 316 318 316 319 327 327 326 325 322 322 316
285 283 283 281 283 285 281 282 283 282 285 283 283 283 282 280 279 281 282 282 283 283 284 286 286 288 291 293 294 295 298 303 306 308 309 312 312 311 313 314 317 318 323 323 326 326 323 319 318
280 284 282 280 278 278 280 275 281 281 281 281 282 281 280 280 280 280 280 280 281 282 285 286 286 287 290 291 291 291 292 296 303 307 309 309 308 305 304 306 309 313 321 324 325 325 323 322 317
283 284 282 279 277 276 278 274 281 280 278 280 280 279 279 279 279 279 279 280 281 283 283 285 286 286 288 288 289 290 291 296 300 302 303 304 303 299 298 298 300 305 311 321 324 325 323 323 320
284 282 281 277 278 273 278 276 279 279 278 278 279 278 277 277 279 279 280 280 281 282 283 284 284 284 286 286 287 287 289 291 295 298 299 298 297 294 292 293 294 296 296 297 298 303 308 307 312
284 282 281 278 277 278 277 274 279 278 276 276 275 274 275 278 278 278 278 278 279 280 281 282 282 282 283 284 284 285 287 289 290 292 293 292 291 289 287 288 289 289 290 291 292 291 291 292 292
279 280 279 272 276 277 278 272 280 277 277 277 276 274 277 277 277 277 277 278 278 279 280 281 281 281 281 282 282 284 285 286 287 288 288 288 286 285 285 285 285 286 286 286 287 287 285 287 288
279 280 279 275 273 270 277 280 277 277 278 279 276 275 276 276 276 276 277 277 277 278 279 280 279 280 280 280 281 281 282 282 283 284 284 284 284 283 282 282 281 282 282 282 282 282 282 282 281
280 281 276 276 272 271 279 278 278 275 275 276 273 274 274 275 276 276 276 276 277 277 278 280 279 279 279 280 280 279 279 280 280 281 281 281 281 281 281 280 280 279 280 280 280 279 278 278 279
278 278 277 277 275 273 272 279 278 274 273 272 273 274 274 274 274 275 275 275 276 277 278 279 278 278 278 278 279 278 278 278 278 278 278 279 280 280 279 279 279 279 279 279 279 277 278 278 277
279 280 280 277 273 275 272 274 277 274 273 273 273 273 274 274 274 274 274 274 275 275 277 277 277 277 278 278 278 277 277 277 276 276 277 278 277 278 278 278 278 278 278 278 277 276 276 276 275
Wind_Speed
12 5 4 5 6 6 11 2 4 4 3 4 2 5 7 9 7 5 7 14 17 15 15 16 23 23 20 11 11 12 12 13 15 15 15 16 15 15 15 13 12 13 14 16 16 16 15 12 12
10 5 5 2 6 9 7 3 4 3 7 6 7 7 10 9 5 5 9 18 16 14 13 16 22 22 21 20 12 13 15 14 15 15 16 16 16 16 16 15 14 13 15 16 15 15 13 12 12
7 5 4 4 5 8 6 7 5 3 3 4 4 3 6 5 8 7 12 14 15 14 14 14 22 23 23 20 18 12 13 15 14 16 16 16 17 17 17 16 15 15 16 16 16 15 14 13 13
3 5 4 7 11 8 3 3 3 7 5 1 3 10 5 6 3 9 13 14 12 13 14 14 20 22 21 21 17 19 12 12 13 15 17 17 17 18 18 17 16 15 15 16 16 15 14 13 12
4 3 6 7 8 5 4 4 5 9 8 5 2 6 8 8 8 13 15 15 14 12 12 13 18 21 22 19 19 16 15 9 12 13 15 18 18 17 17 18 17 16 16 15 15 17 15 13 12
5 4 6 9 2 3 4 3 8 9 8 8 8 11 9 13 13 16 17 15 15 13 11 11 12 16 19 19 18 17 15 14 11 10 13 15 18 19 17 18 19 17 16 16 15 16 16 14 11
8 5 6 7 7 5 1 2 5 7 9 5 5 8 5 9 16 17 17 16 14 14 13 12 13 13 16 17 16 16 15 15 14 12 8 7 12 18 21 19 19 19 18 17 16 16 16 15 13
5 4 4 4 6 4 4 3 2 7 9 6 2 6 7 17 20 19 17 15 13 13 13 13 13 13 13 13 14 14 12 13 14 12 9 6 4 7 10 13 18 21 20 19 17 16 15 15 13
2 6 6 4 4 2 3 4 4 5 12 14 12 13 8 11 14 15 16 15 14 11 13 14 13 13 13 10 10 12 11 8 10 8 8 7 6 9 11 10 12 19 20 19 17 17 15 12 10
5 4 4 5 4 6 8 10 11 9 14 17 18 13 10 15 14 13 14 15 15 16 16 13 14 14 13 11 8 10 8 6 5 7 5 3 5 7 6 6 11 13 12 12 16 15 12 11 8
1 4 4 1 4 6 9 13 14 16 17 17 10 11 14 17 16 15 14 14 16 17 14 15 15 14 13 10 8 5 5 4 4 5 5 6 3 3 5 4 2 5 10 7 10 10 8 10 8
5 3 4 2 1 6 12 13 14 15 17 6 7 10 13 16 15 16 17 16 16 17 18 16 15 15 14 9 7 7 5 6 4 4 3 4 3 1 3 3 4 4 3 6 8 8 9 9 10
6 3 3 7 8 12 11 15 16 16 14 3 7 10 11 13 16 15 16 16 16 16 18 18 16 15 14 13 9 7 7 6 6 4 4 1 3 4 2 2 3 3 5 6 4 3 4 7 9
4 9 10 5 6 9 10 16 15 10 2 6 8 10 10 12 15 16 16 16 16 17 17 18 18 16 15 13 14 9 7 7 5 5 4 4 3 3 4 2 5 6 6 5 8 12 9 8 8
4 8 7 5 1 5 8 17 12 3 3 7 10 10 11 12 14 16 16 17 17 16 17 17 17 16 15 16 13 11 9 6 5 4 5 4 4 5 4 4 3 6 8 10 8 8 8 8 5
5 3 8 6 3 2 4 12 9 4 5 11 11 10 11 12 13 14 15 17 17 17 17 18 16 17 17 15 12 10 10 6 6 4 4 6 3 5 5 4 5 6 7 9 9 8 8 7 9
7 8 11 8 6 3 5 16 3 5 10 12 11 10 10 12 13 14 15 17 17 16 16 16 16 16 14 12 12 13 13 8 4 5 4 6 4 5 6 5 6 5 6 8 8 8 8 6 6
9 8 7 14 3 11 18 26 20 17 9 12 10 10 11 13 14 15 16 16 17 16 14 14 12 15 12 10 10 11 9 7 8 6 5 7 5 6 8 6 7 6 5 5 7 10 9 8 6
8 10 16 17 7 10 12 22 19 15 13 12 11 8 12 14 14 14 14 15 15 16 14 13 13 13 10 7 8 8 11 6 6 5 5 7 5 5 9 4 6 7 6 8 8 8 9 6 9
11 15 17 6 6 16 16 21 15 14 11 10 5 9 12 14 14 14 14 14 14 15 14 12 12 12 11 6 6 5 7 10 10 2 4 6 5 6 5 6 6 7 7 10 10 11 6 6 11
13 12 12 14 19 11 11 13 5 1 4 5 8 7 11 12 14 14 14 14 14 14 13 13 12 12 10 9 5 6 8 10 8 7 6 4 3 4 6 7 9 9 8 7 9 11 12 7 8
6 3 9 15 12 5 5 8 7 6 7 8 7 9 12 12 12 13 14 13 15 14 13 13 11 12 9 9 4 7 7 9 8 6 4 4 4 6 5 6 9 9 9 9 8 9 10 9 8
8 14 14 9 4 9 7 4 3 4 8 8 4 11 12 12 12 13 12 13 15 13 12 12 11 11 9 8 5 4 7 7 7 4 4 3 4 5 7 7 8 7 7 9 10 10 11 8 9
12 10 4 1 2 4 6 3 6 3 1 1 6 12 13 13 13 12 12 12 13 13 12 12 11 11 9 7 6 6 7 8 7 5 3 4 4 5 9 8 6 6 6 7 6 4 2 2 2
7 9 4 3 3 3 6 7 7 4 2 4 9 12 12 11 12 12 13 14 14 14 13 11 11 10 9 8 7 7 6 6 6 5 4 4 4 4 7 7 7 6 7 8 7 7 7 6 5
4 5 2 8 7 11 8 7 1 4 2 5 5 9 10 11 11 12 12 12 14 15 14 13 11 9 8 8 8 7 6 3 4 5 4 3 3 4 6 6 7 9 10 9 8 7 7 7 7
3 2 3 4 3 5 5 5 6 3 4 9 8 11 10 10 10 11 11 11 12 13 14 12 12 10 10 10 7 7 7 6 5 6 6 5 5 5 7 7 8 11 12 11 12 9 11 9 9
4 7 3 3 6 8 5 7 7 2 9 13 10 11 11 11 10 10 11 12 12 13 12 11 10 9 9 9 7 6 7 7 6 7 8 7 7 7 7 8 11 12 13 11 12 12 12 11 9
4 4 2 2 2 5 8 5 3 2 7 12 11 10 10 11 10 10 11 11 11 10 10 9 9 9 9 8 8 8 8 9 8 8 7 8 8 8 9 10 11 12 13 13 15 15 16 13 12
1 3 4 3 5 5 3 10 7 3 5 8 10 10 9 9 9 9 10 11 11 10 9 10 9 8 9 9 9 9 9 9 9 9 9 9 11 11 12 12 13 14 14 13 14 17 11 15 14
Wind_Direction
298 277 268 228 235 238 268 263 23 236 214 63 330 269 327 327 310 357 45 8 354 355 358 356 353 351 344 300 208 188 194 200 194 192 191 194 192 187 186 183 176 173 171 161 159 155 150 157 156
312 292 233 231 249 238 267 233 213 351 17 318 275 258 248 270 39 354 345 353 349 354 5 2 355 354 357 347 235 199 197 203 203 196 198 195 195 193 189 186 178 178 174 170 162 160 163 163 156
284 262 240 232 243 250 303 31 18 82 348 339 299 320 324 17 60 17 5 348 347 353 2 10 1 1 2 7 352 238 208 207 208 205 204 201 199 195 193 186 186 185 183 176 168 167 165 166 161
229 204 223 247 244 255 293 349 352 295 277 145 1 277 128 63 29 9 346 344 348 348 356 11 3 1 1 4 3 8 263 232 220 213 212 208 203 200 199 190 186 189 186 183 179 166 164 170 170
225 258 240 241 262 270 297 307 298 283 290 269 351 270 267 99 44 3 346 338 339 344 354 359 5 360 355 357 2 360 4 310 241 231 218 218 212 209 203 194 189 186 186 189 173 166 162 166 164
204 285 235 252 329 175 246 322 290 275 288 311 294 311 281 91 26 355 340 337 334 335 350 349 352 1 349 349 351 354 358 3 353 278 240 226 218 212 207 203 194 189 184 187 176 167 166 167 167
267 237 288 295 288 282 137 347 275 321 295 309 333 273 284 177 1 342 334 332 330 340 342 347 342 350 347 344 340 346 344 349 351 343 342 291 233 225 216 203 200 194 186 186 181 174 170 168 167
275 268 248 226 326 313 92 300 335 292 304 352 308 261 305 357 345 334 329 324 323 337 335 342 335 340 344 336 327 336 330 339 334 330 348 340 307 247 239 223 208 200 194 185 178 174 170 169 168
274 241 260 266 274 58 130 294 304 260 269 277 277 277 318 349 335 331 333 328 331 330 334 330 335 332 334 328 326 327 326 328 312 298 302 309 252 242 231 219 221 215 197 190 180 170 167 164 163
252 263 5 28 342 290 306 287 301 291 282 281 281 278 345 335 324 327 329 328 329 331 329 326 328 326 324 320 328 316 312 314 288 319 301 261 298 262 273 275 208 219 195 196 184 176 161 168 179
185 295 42 323 302 306 294 289 282 276 274 282 309 310 318 319 320 318 319 317 319 320 322 325 324 320 315 315 318 308 305 294 281 262 296 301 277 277 242 260 174 210 195 193 181 171 177 189 194
267 256 275 348 282 286 287 296 279 270 276 355 314 318 309 313 314 318 316 317 312 314 314 323 320 317 310 306 301 299 290 288 288 277 265 300 280 194 287 227 198 167 186 195 189 179 184 187 201
249 305 287 293 277 283 291 276 273 279 275 232 288 291 297 305 310 311 314 307 315 311 312 310 318 312 309 303 293 291 286 277 276 276 264 207 301 290 259 191 163 121 177 139 89 21 243 191 201
345 298 295 299 285 280 284 284 283 265 62 246 255 277 294 303 310 312 314 316 312 310 308 310 309 311 304 300 294 286 277 268 274 286 282 286 254 279 307 272 189 163 184 176 184 173 186 235 208
301 294 259 201 311 307 331 276 229 216 184 259 269 295 305 312 316 316 317 315 312 307 308 305 309 308 308 299 292 284 263 252 244 261 271 245 275 261 248 252 260 183 180 179 188 182 187 173 231
257 251 329 151 201 98 342 284 323 124 258 277 294 298 310 316 320 316 323 314 310 308 307 308 307 310 308 305 297 284 272 232 237 227 274 250 233 264 281 259 240 217 192 188 181 190 203 202 189
214 307 310 326 162 237 227 289 302 227 260 281 284 298 306 316 321 326 322 313 313 311 307 306 306 304 301 311 304 291 275 247 225 239 200 257 265 278 278 270 255 230 202 193 185 187 198 188 183
299 306 297 303 269 276 290 275 275 276 271 265 281 291 314 325 328 326 320 317 316 308 306 304 308 307 302 310 311 294 258 245 228 220 204 241 218 253 244 242 255 247 207 177 186 187 186 197 173
289 280 285 296 15 309 275 283 282 281 264 247 258 296 315 323 325 321 321 320 316 309 307 314 312 309 306 313 327 322 324 252 215 216 221 231 246 228 253 244 261 260 228 201 179 194 188 191 126
275 283 294 321 187 322 295 288 286 277 251 247 281 299 320 320 322 321 322 319 317 312 311 316 313 308 306 311 321 301 306 299 305 259 242 240 227 265 280 271 242 251 244 217 189 194 183 187 175
279 277 304 298 319 275 305 269 194 247 187 199 238 329 323 319 317 318 320 322 317 314 318 317 317 313 307 317 313 310 303 250 247 232 220 218 48 318 314 307 305 260 240 234 215 203 208 195 188
288 39 306 307 328 307 18 296 226 167 211 211 242 337 326 318 318 318 320 323 316 316 317 320 321 316 317 317 325 328 309 299 316 330 11 39 31 359 349 317 302 291 292 222 225 215 208 196 190
261 326 301 315 269 321 149 253 209 169 236 225 269 332 327 326 315 318 320 320 315 320 322 325 324 320 319 317 353 344 317 307 307 291 288 37 6 10 357 356 327 323 309 284 224 193 203 193 188
297 300 301 170 310 257 160 251 275 158 355 284 319 331 328 316 316 319 323 327 321 323 328 331 329 325 327 329 9 6 324 315 311 314 347 22 0 3 12 352 5 360 13 9 13 36 55 142 192
327 294 309 269 225 310 166 252 296 105 104 311 314 318 310 308 317 323 328 329 328 330 335 333 332 330 334 342 18 7 330 323 318 337 12 13 12 6 13 7 28 33 43 41 40 47 52 52 68
14 303 28 299 314 312 192 245 65 104 155 284 277 295 297 315 318 323 327 329 329 331 334 335 335 335 343 3 22 10 355 353 344 10 34 46 48 39 35 44 51 60 56 54 53 61 51 85 61
85 242 48 275 114 270 233 238 136 166 225 329 325 309 311 313 313 322 328 335 335 335 336 338 340 345 360 15 20 21 22 26 24 34 39 37 57 66 60 55 57 57 57 64 61 64 58 59 63
283 138 206 151 308 301 304 293 276 224 328 317 322 311 311 310 320 332 337 343 343 336 336 344 351 354 5 19 25 38 40 43 49 50 61 64 58 62 66 69 70 68 68 65 74 66 64 66 43
156 213 194 297 240 301 311 311 91 177 318 305 307 308 306 315 331 341 351 342 332 331 337 352 2 6 18 23 32 45 49 49 49 55 54 53 64 68 71 73 78 79 79 69 76 69 74 75 65
303 282 231 240 153 231 286 276 123 184 298 290 300 304 308 324 343 355 345 341 337 340 347 360 7 16 25 32 38 44 50 52 55 54 52 53 59 59 63 65 67 69 66 69 75 71 72 81 57